Weather History for Hurlburt Field, FL

Change the Weather History Date:

Saturday, November 2, 2013

  Actual Average Record
Temperature  
Mean Temperature 64 °F -  
Max Temperature 77 °F 73 °F 82 °F (2001)
Min Temperature 52 °F 54 °F 42 °F (1996)
Growing Degree Days 14 (Base 50)    
Moisture  
Dew Point 48 °F    
Average Humidity 59    
Maximum Humidity 88    
Minimum Humidity 29    
Precipitation  
Precipitation 0.00 in - - ()
Sea Level Pressure  
Sea Level Pressure 29.97 in    
Wind  
Wind Speed 8 mph (NNW)    
Max Wind Speed 13 mph    
Max Gust Speed -    
Visibility 10 miles    
Events Rain    
Averages and records for this station are not official NWS values.
T = Trace of Precipitation, MM = Missing Value Source: NWS Daily Summary

Daily Weather History Graph

Daily Weather History Graph

Search for Another Location

Airport:

Trip Planner

Search our weather history database for the weather conditions in past years. The results will help you decide how hot, cold, wet, or windy it might be!

Date:

Astronomy

Nov. 02, 2013 Rise Set
Actual Time 7:02 AM CDT 5:58 PM CDT
Civil Twilight 6:37 AM CDT 6:22 PM CDT
Nautical Twilight 6:08 AM CDT 6:51 PM CDT
Astronomical Twilight 5:40 AM CDT 7:19 PM CDT
Moon 6:01 AM CDT (11/2) 5:27 PM CDT (11/2)
Length of Visible Light 11h 45m
Length of Day
10h 55m
Waning Crescent, 1% of the Moon is Illuminated
Nov 2
Waning Crescent
Nov 3
New
Nov 9
First Quarter
Nov 17
Full
Nov 25
Last Quarter

Hourly Weather History & Observations

Time (CDT) Temp. Dew Point Humidity Pressure Visibility Wind Dir Wind Speed Gust Speed Precip Events Conditions
12:58 AM 62.2 °F 57.7 °F 85% 29.89 in 10.0 mi North 5.8 mph - N/A   Overcast
1:58 AM 59.4 °F 55.8 °F 88% 29.89 in 10.0 mi North 5.8 mph - N/A   Mostly Cloudy
2:58 AM 58.1 °F 54.0 °F 86% 29.89 in 10.0 mi North 6.9 mph - N/A   Mostly Cloudy
3:58 AM 56.3 °F 52.5 °F 87% 29.90 in 10.0 mi North 6.9 mph - N/A   Scattered Clouds
4:58 AM 54.0 °F 50.5 °F 88% 29.89 in 10.0 mi North 8.1 mph - N/A   Partly Cloudy
5:58 AM 54.0 °F 50.2 °F 87% 29.92 in 10.0 mi North 8.1 mph - N/A   Clear
6:58 AM 52.7 °F 48.7 °F 86% 29.94 in 10.0 mi North 4.6 mph - N/A   Clear
7:58 AM 54.9 °F 50.2 °F 84% 29.98 in 10.0 mi North 8.1 mph - N/A   Clear
8:25 AM 57.2 °F 50.0 °F 77% 29.97 in 10.0 mi North 10.4 mph - N/A Rain Light Rain
8:34 AM 59.0 °F 50.0 °F 72% 29.98 in 10.0 mi North 11.5 mph - N/A   Clear
8:58 AM 59.0 °F 50.5 °F 73% 29.99 in 10.0 mi North 9.2 mph - 0.00 in   Partly Cloudy
9:58 AM 64.0 °F 52.3 °F 66% 30.00 in 10.0 mi North 8.1 mph - N/A   Overcast
10:16 AM 64.4 °F 51.8 °F 64% 29.99 in 10.0 mi North 9.2 mph - N/A Rain Light Rain
10:27 AM 66.2 °F 51.8 °F 60% 30.00 in 10.0 mi North 9.2 mph - N/A   Mostly Cloudy
10:58 AM 70.9 °F 49.6 °F 47% 30.00 in 10.0 mi North 12.7 mph - 0.00 in   Partly Cloudy
11:58 AM 74.1 °F 46.4 °F 37% 30.00 in 10.0 mi NNW 10.4 mph - N/A   Clear
12:58 PM 75.6 °F 46.4 °F 35% 29.97 in 10.0 mi NNW 8.1 mph - N/A   Clear
1:58 PM 75.9 °F 43.5 °F 31% 29.95 in 10.0 mi North 9.2 mph - N/A   Clear
2:01 PM 77.0 °F 44.6 °F 32% 29.93 in 10.0 mi NW 12.7 mph - N/A   Clear
2:49 PM 77.0 °F 44.6 °F 32% 29.92 in 10.0 mi NNW 6.9 mph - N/A Rain Light Rain
2:58 PM 76.8 °F 45.1 °F 32% 29.93 in 10.0 mi North 9.2 mph - 0.00 in Rain Light Rain
3:12 PM 77.0 °F 42.8 °F 29% 29.92 in 10.0 mi NW 11.5 mph - N/A   Partly Cloudy
3:58 PM 73.6 °F 43.7 °F 34% 29.93 in 10.0 mi WNW 9.2 mph - 0.00 in   Scattered Clouds
4:58 PM 73.2 °F 44.2 °F 35% 29.95 in 10.0 mi NW 8.1 mph - N/A   Scattered Clouds
5:58 PM 70.3 °F 45.7 °F 41% 29.97 in 10.0 mi NW 8.1 mph - N/A   Clear
6:58 PM 67.1 °F 46.0 °F 47% 30.01 in 10.0 mi NNW 8.1 mph - N/A   Clear
7:58 PM 64.0 °F 44.8 °F 50% 30.04 in 10.0 mi NNW 8.1 mph - N/A   Clear
8:58 PM 62.1 °F 43.5 °F 51% 30.07 in 10.0 mi NNW 10.4 mph - N/A   Clear
9:58 PM 55.9 °F 44.4 °F 65% 30.09 in 10.0 mi North 8.1 mph - N/A   Clear
10:58 PM 53.4 °F 43.5 °F 69% 30.09 in 10.0 mi North 6.9 mph - N/A   Clear
11:58 PM 53.2 °F 41.7 °F 65% 30.10 in 10.0 mi North 8.1 mph - N/A   Clear